This demonstration page uses our WeatherBlox Daily Observations layout. Learn more.

Left ArrowRight Arrow

39.92423, -83.80882

Hourly Observations for February 22, 2019

Temp ( °F °C ) Dew Point ( °F °C ) Humidity (%) Winds ( mph kmh ) Pressure ( in mb ) Visibility ( mi km ) Precip ( " mm )
12:56 am 00:56 Clear 33 0.6 30 -1.1 89 89 N N/A 30.32 1027 10 16.0934 N/A
1:56 am 01:56 Clear 32 undefined 30 -1.1 92 92 N 3 6 30.34 1027 10 16.0934 N/A
2:56 am 02:56 Clear 31 -0.6 29 -1.7 92 92 N 5 7 30.34 1027 9 14.48406 N/A
3:56 am 03:56 Clear 31 -0.6 29 -1.7 92 92 N 7 11 30.33 1027 9 14.48406 N/A
4:56 am 04:56 Clear 31 -0.6 29 -1.7 92 92 N 6 9 30.35 1028 8 12.87472 N/A
5:56 am 05:56 Clear 31 -0.6 28 -2.2 89 89 NNE 7 11 30.37 1028 8 12.87472 N/A
6:56 am 06:56 Clear 29 -1.7 27 -2.8 92 92 NE 7 11 30.4 1030 7 11.26538 N/A
7:56 am 07:56 Sunny with Mist and Fog 30 -1.1 27 -2.8 88 88 NE 8 13 30.42 1030 6 9.65604 N/A
8:56 am 08:56 Sunny 31 -0.6 27 -2.8 85 85 E 9 15 30.43 1031 7 11.26538 N/A
9:56 am 09:56 Sunny 32 undefined 27 -2.8 82 82 ENE 9 15 30.45 1031 7 11.26538 N/A
10:56 am 10:56 Sunny 34 1.1 28 -2.2 79 79 ENE 9 15 30.45 1031 7 11.26538 N/A
11:56 am 11:56 Sunny 35 1.7 28 -2.2 76 76 E 10 17 30.45 1031 9 14.48406 N/A
12:56 pm 12:56 Sunny 36 2.2 28 -2.2 73 73 ENE 8 13 30.43 1031 9 14.48406 N/A
1:56 pm 13:56 Sunny 38 3.3 30 -1.1 73 73 E 9 15 30.4 1030 9 14.48406 N/A
3:56 pm 15:56 Sunny 38 3.3 31 -0.6 76 76 ENE 8 13 30.38 1029 8 12.87472 N/A
4:56 pm 16:56 Sunny 38 3.3 30 -1.1 73 73 ENE 8 13 30.37 1029 9 14.48406 N/A
5:56 pm 17:56 Sunny 35 1.7 30 -1.1 82 82 NE 6 9 30.39 1029 9 14.48406 N/A
6:56 pm 18:56 Clear 33 0.6 29 -1.7 85 85 ENE 3 6 30.39 1029 8 12.87472 N/A
7:56 pm 19:56 Clear 32 undefined 29 -1.7 88 88 ENE 7 11 30.39 1029 8 12.87472 N/A
8:56 pm 20:56 Clear 32 undefined 29 -1.7 88 88 ENE 7 11 30.38 1029 8 12.87472 N/A
9:56 pm 21:56 Clear 34 1.1 29 -1.7 82 82 ENE 8 13 30.36 1028 8 12.87472 N/A
10:56 pm 22:56 Clear 33 0.6 29 -1.7 85 85 E 8 13 30.35 1028 8 12.87472 N/A
11:56 pm 23:56 Clear 34 1.1 29 -1.7 82 82 E 12 19 30.32 1027 9 14.48406 N/A

Powered by AerisWeather